Terminal Aerodrome Forecast
Issued by NWS La Crosse, WI

Home | Current Version | Previous Version | Text Only | Print | Product List | Glossary On
Versions: 1 2 3 4 5 6 7 8 9 10 11 12 13 14 15 16 17 18 19 20 21 22 23 24 25
000
FTUS43 KARX 032320
TAFRST
TAF
KRST 032320Z 0400/0424 30008KT P6SM -SHRA VCTS BKN040CB
      TEMPO 0400/0402 31025G35KT 2SM +TSRA BKN012CB
     FM040500 36011KT P6SM VCSH BKN040
     FM040900 36012KT P6SM SCT040 BKN070=

USA.gov is the U.S. government's official web portal to all federal, state and local government web resources and services.